Theta_e
276 276 276 276 276 275 276 276 276 276 275 276 275 275 274 274 272 269 270 271 272 273 275 274 274 275 276 276 277 276 276 278 279 277 276 275 275 279 284 285 286 287 287 288 288 288 289 289 289 289 290 291 291 292 292 292 292 292 293 294 295 296 296 297 298 298 299 299 300 300 301 301 302 302
276 276 275 275 276 275 275 275 275 275 274 275 275 274 275 274 272 272 271 271 273 272 274 274 274 274 275 276 276 276 275 279 278 276 275 275 275 281 282 282 284 285 287 287 286 288 288 288 289 289 289 289 290 291 291 291 291 292 293 293 294 294 295 296 296 296 296 297 298 299 299 300 301 301
276 274 274 274 274 274 274 274 274 274 274 275 275 274 274 275 274 273 272 269 272 273 272 273 274 274 274 275 275 275 275 277 277 275 275 274 278 279 278 280 281 283 284 284 285 287 288 288 288 288 288 289 289 290 290 290 290 290 291 291 293 293 294 294 293 294 294 295 296 297 298 298 299 300
275 274 273 274 274 274 274 274 274 273 274 274 274 274 274 274 274 274 273 271 271 274 273 273 273 273 274 274 274 273 274 276 277 274 274 275 278 275 275 278 280 281 282 284 286 287 287 288 288 287 287 288 288 288 289 289 289 289 289 291 292 292 292 292 292 293 293 294 294 295 295 296 297 298
273 273 273 272 273 273 273 273 273 273 273 273 274 274 274 273 272 272 271 269 270 272 273 274 274 273 274 272 273 272 273 273 274 275 274 274 274 274 274 274 277 280 281 283 284 285 286 287 287 287 287 287 287 287 288 288 288 288 289 289 290 291 291 291 292 291 292 292 293 293 294 295 296 297
274 272 272 272 272 272 272 272 272 272 272 272 272 272 272 272 272 272 271 270 270 270 272 272 273 272 273 271 273 272 272 272 273 273 273 274 274 274 274 274 274 279 281 283 284 285 286 286 287 286 286 286 286 287 288 287 287 288 288 288 288 289 289 290 290 290 290 291 292 293 293 294 295 296
272 272 272 271 272 272 271 271 272 272 272 272 271 271 272 271 271 272 272 270 269 269 270 271 271 271 272 271 271 272 272 273 273 272 273 273 274 275 274 274 274 279 281 283 284 285 285 285 285 285 286 286 286 286 287 287 287 287 287 287 287 287 287 288 288 289 289 290 292 292 292 293 294 295
271 271 271 271 270 270 270 270 270 271 271 271 271 271 271 271 271 271 271 271 270 269 268 270 270 271 271 271 272 272 273 272 272 273 273 274 274 274 275 274 274 277 282 283 283 284 284 284 284 285 285 285 286 286 286 286 286 286 286 286 286 286 286 286 287 287 288 289 291 291 292 292 293 293
271 271 271 271 270 269 269 269 269 269 269 270 270 270 271 271 271 272 272 271 271 269 268 269 270 271 271 271 271 272 271 272 272 273 273 273 274 274 275 275 276 279 281 281 281 282 282 283 284 284 285 285 285 286 286 286 286 285 285 285 285 285 286 286 286 287 287 288 288 289 291 292 292 292
271 271 270 270 270 269 269 269 268 269 269 269 269 269 270 270 271 271 271 271 270 270 269 269 269 270 270 270 271 271 272 271 271 272 273 274 274 274 275 275 276 277 277 276 277 279 280 281 283 284 284 285 285 285 285 285 285 284 284 284 284 284 285 286 286 287 287 287 287 288 289 290 291 291
271 271 271 270 270 270 270 269 269 269 268 269 269 269 269 270 269 269 269 270 270 270 270 270 270 269 270 271 270 272 273 273 273 272 272 273 275 275 275 275 276 277 277 279 281 280 280 281 281 282 283 284 284 284 284 284 284 283 283 283 284 284 285 286 286 286 286 287 287 287 287 288 289 290
271 271 271 271 271 271 271 270 270 269 269 269 269 270 270 269 269 268 268 269 269 269 269 269 269 269 269 270 272 273 273 272 273 274 273 272 273 274 275 275 275 276 277 276 276 279 279 280 280 282 282 282 283 283 283 282 282 281 282 283 284 284 285 285 286 286 286 286 286 287 287 287 287 289
271 270 270 271 271 272 275 277 276 275 274 270 269 269 270 269 269 268 267 267 268 267 268 268 270 270 270 271 271 271 272 272 272 274 274 273 274 274 274 275 277 276 275 276 276 276 277 277 277 276 276 277 280 279 281 280 280 281 282 283 284 284 285 285 285 285 285 286 286 286 286 287 287 287
271 271 270 271 276 277 277 278 278 279 279 279 274 270 269 268 267 265 263 265 265 266 266 267 269 270 270 271 272 272 273 274 275 274 273 272 273 274 273 274 275 276 276 274 272 273 276 275 275 276 276 278 278 276 276 276 278 281 283 284 284 284 284 285 285 285 285 285 285 286 286 286 286 287
271 270 270 270 273 275 277 276 278 278 279 278 278 278 277 275 270 265 265 265 266 265 268 270 271 271 271 272 273 274 274 274 273 273 273 273 273 271 270 268 272 275 273 271 270 270 273 275 274 275 275 275 275 275 275 280 282 282 283 283 284 284 284 284 284 284 285 285 285 285 285 285 286 286
270 270 270 271 271 271 270 270 270 274 277 277 278 278 278 278 278 277 271 268 268 271 271 271 272 272 272 273 274 273 273 272 273 274 273 273 271 270 269 269 268 272 273 270 269 269 273 274 274 273 274 275 275 276 279 282 282 282 283 283 283 283 284 284 284 284 284 284 284 284 284 285 285 285
270 270 270 270 271 271 275 274 271 269 270 275 276 276 277 277 277 277 278 278 276 275 273 272 272 273 273 273 273 274 273 274 273 273 272 271 270 270 269 269 269 270 271 269 268 268 271 273 273 272 274 276 276 276 278 280 281 282 282 283 283 283 283 283 283 284 284 284 284 284 284 284 284 284
270 270 270 269 270 270 270 271 270 269 268 268 269 269 269 269 272 276 277 277 277 277 275 274 273 275 275 273 273 274 275 274 272 271 270 270 269 268 268 269 268 269 271 269 269 268 270 272 271 271 273 274 274 273 277 280 281 281 282 282 282 283 283 283 282 283 283 283 283 283 284 284 284 284
270 270 271 270 270 269 269 269 270 269 268 266 266 266 266 268 269 271 273 274 274 275 276 275 275 275 274 274 274 276 275 274 272 271 270 270 269 268 268 268 269 269 271 271 269 265 268 271 270 269 270 272 272 273 276 278 279 280 281 281 281 282 282 282 282 282 282 282 283 283 283 283 283 284
271 270 270 270 270 269 269 272 275 274 270 267 265 265 266 268 270 272 275 277 278 276 276 276 275 274 275 277 277 276 274 272 272 272 269 267 266 265 264 264 266 266 269 269 267 266 267 269 268 268 270 271 270 271 271 275 277 278 279 280 280 280 281 281 281 281 282 282 282 283 283 283 283 283
271 270 270 270 269 269 268 272 275 277 277 270 268 268 268 270 272 273 275 278 279 279 279 278 278 278 278 278 277 276 275 273 272 267 263 261 264 263 262 262 263 263 266 267 268 267 264 267 267 267 268 269 268 269 270 271 275 277 278 279 279 280 280 280 281 281 282 282 282 282 282 283 282 282
270 270 273 272 270 269 269 273 276 277 276 273 272 272 272 272 272 274 276 275 275 277 277 277 277 276 275 275 273 272 272 273 272 263 260 263 264 262 262 261 262 263 264 266 269 265 265 267 267 266 267 267 268 269 270 271 272 276 276 278 279 279 279 280 281 281 281 281 281 282 282 282 282 279
269 269 272 274 273 271 271 275 276 277 276 273 273 273 272 272 273 274 275 273 271 270 270 271 270 270 269 267 266 266 270 271 270 267 265 264 262 261 261 262 262 261 262 265 269 264 265 265 266 266 264 263 266 269 270 270 271 271 272 272 273 277 278 279 280 280 280 281 281 281 282 282 281 278
267 268 268 271 276 278 277 277 277 277 278 275 274 274 273 273 273 275 272 272 272 271 271 269 268 266 265 265 265 265 265 266 266 267 267 265 263 261 261 261 262 261 262 265 269 266 266 266 265 267 265 262 261 266 269 269 269 270 271 271 271 275 277 277 277 278 279 280 280 281 281 281 280 277
266 267 268 267 273 277 278 279 279 279 279 279 276 276 275 275 275 276 273 272 273 268 267 265 264 262 260 260 261 262 263 264 264 265 267 266 265 263 261 260 261 262 264 266 271 267 264 265 264 266 265 265 265 265 266 267 268 269 270 271 270 272 273 273 274 274 277 278 280 280 280 280 281 280
266 267 267 267 271 275 277 278 279 280 280 280 278 277 279 279 279 277 269 267 266 264 263 261 260 258 257 257 258 260 261 262 263 264 264 266 265 265 265 263 262 261 262 266 271 266 264 263 265 264 264 264 264 265 264 265 267 269 270 270 270 271 271 271 272 272 273 274 275 276 277 281 281 281
267 267 267 268 272 275 276 278 279 279 279 279 278 280 279 279 279 276 266 266 263 263 261 260 258 258 256 256 258 259 260 262 262 264 264 264 265 265 265 266 266 265 266 266 267 266 265 263 265 264 263 264 263 264 264 263 264 268 268 269 269 270 271 271 270 271 272 273 273 278 279 279 280 280
267 267 267 268 273 275 276 278 278 279 279 278 279 279 280 278 277 267 265 263 262 261 260 258 257 258 257 257 258 259 261 262 262 263 264 264 264 264 264 265 265 266 266 266 266 266 265 264 264 265 265 264 263 262 262 265 266 266 266 268 269 269 270 270 270 270 272 273 273 274 273 274 275 275
269 271 273 273 274 275 276 277 278 278 278 279 279 279 278 277 267 264 263 263 261 260 259 258 257 258 259 260 261 262 262 262 262 262 262 262 262 262 263 263 264 264 265 265 265 266 265 265 265 266 265 265 264 264 264 263 264 265 266 266 265 267 269 270 270 271 272 273 273 274 274 274 274 275
276 276 275 276 276 276 276 275 275 274 275 277 278 278 277 269 264 263 262 260 259 260 259 258 258 259 259 260 262 262 262 260 259 259 259 260 260 261 261 261 262 262 263 264 265 265 266 266 266 266 265 265 265 264 264 263 263 265 266 265 266 268 269 270 270 271 272 273 274 274 275 275 275 275
277 276 276 275 276 276 277 277 276 276 275 274 275 271 269 265 263 262 259 259 260 259 257 258 258 259 259 259 259 258 258 258 259 259 260 259 259 260 261 261 261 261 263 261 264 265 266 266 266 266 264 264 264 264 264 264 263 263 264 265 266 264 267 270 271 271 272 272 273 273 273 274 274 276
277 276 277 277 276 275 275 275 273 272 271 269 268 266 264 262 262 264 265 265 260 260 259 258 257 257 256 257 257 257 256 258 259 259 259 259 259 260 260 260 259 260 261 262 263 263 265 265 265 266 265 264 263 263 264 263 263 263 263 265 266 268 269 268 269 270 271 272 271 271 272 273 273 274
274 274 273 272 272 272 270 269 268 267 265 264 264 263 262 260 258 257 257 258 259 258 256 257 257 257 255 256 256 256 256 257 258 259 257 259 258 260 258 259 259 259 259 260 261 262 263 264 264 265 265 265 265 264 263 261 262 263 263 264 266 266 267 269 269 269 271 271 270 271 271 273 274 274
273 272 271 271 271 271 271 270 269 268 266 265 264 262 264 262 259 258 258 258 260 257 257 257 256 256 255 255 255 255 256 257 257 259 262 259 258 258 258 258 259 260 260 260 260 261 262 263 263 264 264 264 265 265 264 262 262 263 264 265 265 265 267 268 269 270 270 270 270 270 270 272 273 275
273 271 270 270 270 270 270 269 269 269 268 267 265 265 263 262 262 263 261 261 259 258 258 257 256 255 254 256 255 256 256 257 258 257 257 257 257 257 258 258 259 259 259 259 260 261 261 261 262 262 262 263 263 261 268 267 261 263 264 265 266 266 267 269 269 270 271 271 272 271 271 272 273 275
270 271 270 269 269 269 268 268 268 268 268 267 267 266 264 263 261 261 261 262 260 258 257 257 256 255 255 255 255 255 256 258 257 257 257 256 257 258 258 258 259 259 259 259 260 261 261 261 261 260 259 260 259 259 260 268 269 266 264 264 266 266 268 269 270 270 271 271 272 272 270 271 272 274
270 269 269 269 269 269 268 268 268 268 267 267 266 265 264 264 263 262 262 263 260 259 258 256 256 256 255 255 256 257 256 256 256 256 256 256 256 257 257 258 259 259 258 259 261 261 260 260 261 260 259 258 258 257 259 263 266 270 267 265 266 267 268 268 268 268 270 271 272 271 270 270 271 274
272 271 270 270 269 269 269 268 268 267 266 266 265 264 263 263 263 263 261 260 260 259 259 259 257 256 256 255 254 254 253 254 255 255 256 256 256 256 257 257 257 258 258 260 261 260 259 259 260 260 260 258 257 258 258 261 263 264 269 268 266 267 268 268 267 267 268 271 270 270 271 270 272 274
273 272 272 271 270 270 269 268 267 267 266 265 263 263 262 262 262 261 260 259 259 258 258 257 256 256 256 254 255 255 254 253 254 255 255 255 256 256 257 257 257 258 259 260 260 259 258 258 259 260 260 259 258 259 260 260 261 264 267 271 269 267 267 268 267 268 269 268 269 270 271 273 275 278
273 272 271 270 269 269 268 268 266 266 265 264 263 263 262 262 261 260 260 259 259 258 257 257 257 258 256 255 254 252 253 253 254 254 255 255 256 257 257 258 258 259 259 259 259 258 258 258 259 260 261 261 262 262 263 263 264 265 266 268 271 270 268 268 267 268 268 269 269 268 268 271 271 274
269 269 269 268 268 267 267 266 266 265 264 264 263 263 263 262 261 260 260 259 258 258 257 256 256 255 255 254 253 252 253 254 254 254 255 255 257 258 259 259 259 259 258 258 258 258 258 259 262 265 263 262 262 263 263 262 261 261 262 264 269 272 272 272 269 268 267 268 268 268 268 269 270 272
266 266 267 267 267 267 266 265 265 264 263 263 262 262 261 261 260 261 261 261 260 258 257 256 256 255 254 253 252 253 253 254 253 254 255 254 254 256 258 258 257 258 258 257 258 258 260 261 262 261 261 261 261 261 260 260 260 261 262 264 265 269 271 271 272 272 270 269 268 267 268 269 270 269
263 264 264 264 265 264 264 264 264 263 263 262 261 261 260 260 259 260 260 259 259 258 257 256 255 254 254 252 251 252 252 253 253 253 253 254 255 256 256 256 257 257 258 258 259 259 260 260 260 260 260 260 261 262 260 260 261 261 262 262 263 264 265 269 270 271 272 273 273 271 271 270 268 267
261 261 261 262 262 262 263 263 262 262 262 261 261 260 259 258 258 258 258 258 257 257 256 255 254 253 253 253 252 250 251 252 252 253 254 255 257 257 257 257 257 257 258 258 258 258 258 259 259 260 259 260 261 260 260 260 260 261 261 262 263 262 262 263 264 268 269 270 271 273 274 274 274 274
259 259 259 259 260 260 260 260 260 260 260 260 259 259 258 258 257 257 257 256 256 256 255 255 254 253 252 252 252 252 252 255 255 254 254 254 254 255 256 256 257 257 257 257 257 257 258 258 259 260 259 259 260 260 261 261 260 261 261 261 261 261 261 262 261 262 263 264 268 272 273 274 274 274
Wind_Speed
4 4 4 5 5 3 3 3 4 4 3 3 2 2 4 2 1 2 4 3 1 3 1 1 2 4 7 6 5 7 6 9 13 8 9 9 9 16 22 23 23 24 25 25 24 24 24 24 24 24 24 24 25 25 25 25 25 25 26 26 27 27 27 26 26 27 27 27 27 26 26 26 27 27
4 4 4 3 4 2 4 4 3 3 3 3 3 3 1 2 4 3 2 6 2 3 2 1 2 4 5 5 6 5 5 10 12 8 9 9 9 19 21 22 22 23 24 25 24 24 24 24 24 24 24 24 24 25 25 24 24 24 25 26 26 26 26 27 27 27 27 27 27 27 27 26 26 27
4 4 4 3 3 3 4 3 3 2 3 3 3 2 3 2 3 3 2 2 5 4 2 2 2 4 3 5 6 5 5 8 12 8 9 9 16 20 15 20 21 22 24 24 24 24 25 25 25 25 24 25 25 25 24 24 24 25 25 26 26 26 26 27 27 27 27 27 28 27 27 27 27 27
4 4 4 3 3 3 4 3 3 3 2 2 3 2 4 3 3 3 3 4 10 1 2 4 3 3 4 5 8 7 6 7 11 7 8 9 15 10 9 14 19 21 23 23 24 24 25 25 25 25 25 25 25 25 25 24 25 25 25 25 26 26 26 26 26 26 26 27 27 27 28 27 27 27
3 3 4 3 2 3 4 4 3 3 3 3 4 4 3 2 1 2 1 3 9 7 2 1 3 4 5 5 4 9 8 9 9 8 7 8 8 9 8 9 14 19 21 23 24 24 25 25 26 26 25 25 25 25 25 25 25 25 25 26 26 26 26 26 26 26 26 26 26 27 27 27 27 27
3 3 4 3 3 3 4 3 3 3 3 3 3 2 4 2 0 0 3 3 4 11 3 5 3 3 4 8 4 7 12 12 9 10 9 8 7 8 8 8 8 17 20 23 23 24 25 25 26 26 25 25 25 25 25 25 25 26 26 26 27 26 26 26 26 26 26 26 26 26 26 26 26 26
3 3 3 3 3 3 3 3 3 3 3 3 3 2 2 2 1 1 1 1 4 6 9 2 6 5 6 5 9 8 7 8 9 11 10 9 8 7 9 9 8 15 21 24 24 25 26 26 26 25 26 26 25 25 25 26 26 27 27 27 27 27 26 26 26 26 26 26 26 25 25 26 25 25
3 4 4 4 4 3 3 3 3 2 3 3 3 3 2 2 2 2 1 2 2 3 8 5 5 7 8 7 5 7 8 7 9 9 10 8 9 9 8 8 9 12 22 25 25 25 25 26 26 26 26 25 25 26 26 27 27 28 27 27 27 27 26 26 25 25 25 25 25 25 25 25 25 24
4 4 4 4 4 3 3 2 2 2 3 3 4 3 3 3 3 2 2 3 3 5 7 10 5 5 6 6 7 7 9 10 9 8 10 10 9 10 7 7 8 15 21 22 22 23 23 25 25 25 25 26 27 27 27 28 28 27 27 27 27 26 26 25 25 24 24 25 25 25 25 25 24 25
4 4 4 4 4 4 4 3 3 3 4 3 4 4 4 4 3 3 3 4 4 5 6 6 9 4 6 8 5 4 7 10 12 13 11 8 6 9 10 8 7 8 9 9 10 13 15 18 24 26 26 26 27 28 28 28 27 27 26 27 26 26 25 24 24 25 25 24 24 24 24 24 24 24
4 4 4 4 4 4 4 4 4 4 4 5 5 5 5 4 4 4 5 4 5 5 5 6 6 7 5 5 10 8 6 9 7 10 14 15 9 7 9 13 10 8 11 14 18 17 19 21 18 21 25 26 27 27 27 27 27 26 26 26 26 25 24 25 25 25 24 24 24 24 24 24 24 24
4 4 4 3 4 4 4 5 4 4 5 4 5 5 4 4 5 5 5 5 5 5 5 6 7 6 7 8 7 7 7 10 10 6 10 14 14 15 13 10 13 14 11 11 10 9 13 14 17 22 23 26 27 26 24 26 26 26 26 25 24 24 25 25 25 24 24 24 24 23 23 23 24 24
4 3 3 3 3 4 6 9 7 7 7 5 5 4 5 5 6 4 4 5 4 4 4 6 5 7 7 7 9 10 9 10 12 13 12 13 14 13 14 13 10 10 13 12 10 10 9 12 11 10 11 12 18 17 22 21 24 24 23 24 24 25 25 25 25 24 24 24 24 23 23 23 23 23
4 4 4 3 6 8 8 9 10 11 12 11 8 6 6 5 5 5 5 6 4 4 4 4 6 7 8 9 9 10 10 10 11 13 13 15 14 13 14 13 7 10 12 13 15 12 9 11 12 10 9 9 11 10 11 11 16 21 25 25 25 25 25 25 25 25 24 24 23 22 22 22 23 24
5 4 4 4 5 5 6 5 9 10 10 10 12 10 10 9 8 6 6 5 5 4 5 5 5 7 10 9 8 10 11 11 11 12 12 13 13 12 14 16 14 5 10 13 13 13 9 10 11 9 9 10 11 12 12 21 24 24 25 27 27 27 27 26 25 25 24 22 22 23 23 24 23 24
5 5 5 4 4 4 4 4 4 6 10 11 11 11 11 12 12 10 8 6 4 4 5 6 6 8 10 10 9 10 11 12 13 12 12 12 13 13 13 12 14 11 11 14 13 14 9 9 11 11 9 11 11 12 18 25 26 29 29 29 28 27 26 25 24 23 22 22 24 26 26 25 24 24
6 5 6 5 5 5 9 6 5 5 4 8 11 12 12 12 12 12 13 11 7 5 6 7 7 8 9 10 9 9 12 13 13 13 12 11 12 12 13 12 14 14 11 12 12 13 13 12 13 14 11 10 9 11 19 30 31 28 27 26 26 25 24 23 22 22 24 26 27 26 26 25 24 24
7 7 7 6 6 5 5 5 5 4 5 4 4 5 4 4 7 11 12 12 13 11 8 8 8 9 8 9 10 11 11 11 10 10 11 12 12 12 13 14 14 14 10 10 12 13 12 12 14 14 12 11 13 13 20 26 27 28 27 25 25 25 24 24 25 27 27 27 27 26 25 25 24 24
7 7 7 6 7 5 5 6 6 5 5 4 4 4 5 5 6 7 8 7 7 8 8 8 9 7 5 7 9 9 8 9 8 9 12 11 11 11 12 11 9 10 7 9 10 11 13 12 14 13 12 12 13 12 18 25 27 28 27 27 26 26 27 28 28 26 26 26 25 25 24 24 24 23
7 7 7 7 7 6 6 9 14 11 7 5 6 7 6 7 7 8 9 13 13 10 8 6 4 6 8 11 10 11 10 7 7 7 6 5 5 8 9 10 9 8 7 8 10 9 10 11 13 14 12 12 13 14 13 20 25 25 25 27 28 27 26 26 25 25 24 24 24 24 24 24 24 24
7 7 8 8 7 7 8 10 14 15 13 6 8 8 8 8 8 8 8 13 14 12 13 15 16 16 14 12 14 16 16 11 8 4 6 5 4 7 9 10 8 9 8 7 7 8 11 10 12 15 12 12 15 13 12 11 17 25 28 27 26 25 25 25 25 25 24 24 24 24 24 24 23 25
7 8 13 10 8 9 9 12 15 16 12 8 8 8 9 10 10 8 6 3 3 6 12 15 12 8 10 12 12 11 12 12 8 3 5 6 4 6 5 9 10 11 9 6 5 8 9 12 12 14 12 12 8 11 12 13 15 22 20 24 25 24 25 25 25 25 25 24 23 23 24 23 23 15
7 8 11 18 14 11 11 16 16 17 14 8 8 9 9 11 10 8 5 4 3 3 3 2 1 4 6 4 3 5 10 10 8 5 5 4 4 6 6 7 9 11 5 1 8 10 10 12 10 12 13 12 7 6 9 12 12 13 14 15 17 23 25 25 25 25 25 25 24 23 23 23 21 12
7 8 8 12 19 21 19 17 18 18 18 11 8 9 10 9 9 3 4 4 5 2 4 3 2 3 3 3 3 4 5 6 5 6 5 4 4 5 7 6 6 8 9 5 11 11 9 9 11 10 10 13 14 10 10 14 12 12 12 14 12 18 22 22 19 24 24 23 24 23 22 22 20 12
9 8 9 7 14 19 20 19 19 19 19 17 11 10 10 9 6 5 6 3 3 3 2 2 2 2 2 3 3 3 4 4 5 5 6 5 5 6 6 8 8 9 11 9 14 9 9 8 10 8 9 8 11 14 12 12 11 11 10 9 12 12 11 13 12 13 17 22 22 22 22 22 22 17
9 9 7 7 11 18 19 20 20 21 19 20 12 11 17 18 17 9 3 4 3 2 1 1 2 3 3 3 4 4 5 5 6 4 4 6 6 6 7 7 9 10 11 8 15 10 10 9 9 10 9 10 12 11 15 11 9 10 9 9 9 12 13 14 14 14 14 12 11 14 18 23 22 23
9 5 6 6 12 16 18 19 20 19 20 17 13 19 19 18 16 8 4 4 3 2 2 2 5 5 4 4 4 4 5 5 4 4 5 6 6 7 7 9 9 11 12 10 8 9 8 9 9 9 11 11 14 14 13 14 12 10 11 9 10 11 10 11 12 13 13 12 12 21 21 21 21 22
5 5 6 6 13 16 18 20 19 18 18 13 19 19 19 14 11 2 4 1 2 1 3 4 5 6 5 3 4 5 5 5 4 5 7 7 7 7 7 9 10 10 11 10 8 8 8 9 9 9 10 11 12 11 15 12 13 13 15 14 11 11 10 11 12 12 11 11 10 10 9 10 10 10
6 9 12 14 15 17 18 20 19 17 19 22 20 21 17 12 3 3 3 4 2 5 7 6 6 6 6 5 5 5 4 5 4 4 6 6 7 7 8 9 9 10 8 7 7 7 7 8 9 10 9 9 11 13 12 14 14 15 14 14 12 9 10 11 9 11 11 11 11 9 9 9 10 10
17 18 17 18 18 17 16 12 9 8 8 16 20 17 13 3 5 4 4 3 5 7 6 6 6 6 4 4 5 4 4 4 5 4 5 6 7 6 7 8 9 5 6 7 7 7 7 7 8 9 10 10 10 12 12 12 13 10 9 9 11 13 9 9 10 11 11 12 13 11 10 9 10 10
11 14 15 11 14 12 17 17 15 14 10 10 10 5 2 4 4 5 5 6 7 7 5 6 5 5 4 3 3 3 4 6 5 3 5 6 7 6 6 7 10 10 8 5 5 6 6 7 8 9 10 11 11 11 11 10 12 12 11 10 9 10 11 11 9 12 13 13 13 11 12 10 11 11
8 7 10 13 10 9 9 10 8 7 6 7 6 5 4 4 3 5 5 5 4 4 4 4 3 3 3 4 4 3 4 6 6 4 5 5 7 5 6 7 9 8 9 8 7 5 5 6 7 7 8 10 13 13 11 10 11 11 11 10 10 9 9 10 13 12 10 12 10 9 9 10 10 10
6 6 6 5 6 6 7 6 6 5 5 4 4 5 4 4 3 3 3 5 6 6 4 5 5 6 4 5 3 3 5 6 6 4 5 5 6 5 3 7 9 8 9 11 9 9 8 6 5 8 9 10 11 13 12 11 10 9 9 9 9 10 9 9 9 11 13 11 10 10 11 12 10 10
8 9 8 9 9 9 8 9 8 7 6 6 5 5 5 5 5 5 5 5 6 5 6 5 5 6 5 5 5 4 5 6 6 5 6 5 4 5 5 7 9 8 8 9 8 8 9 9 9 9 8 9 9 11 11 10 10 8 7 9 10 10 10 9 10 11 11 11 12 13 14 14 13 10
11 9 9 9 8 9 8 9 10 8 8 8 7 7 6 6 6 6 5 6 7 7 6 6 6 5 4 6 4 5 5 6 7 6 5 4 5 5 6 7 9 8 8 9 9 8 7 9 10 11 10 9 9 4 11 11 5 7 8 10 9 9 11 11 11 11 11 12 11 10 10 12 14 12
10 8 9 8 9 8 9 10 8 8 8 8 8 8 7 7 6 6 7 7 6 6 6 6 6 6 5 5 5 5 5 7 6 6 6 5 5 5 5 6 7 8 7 8 9 7 6 8 8 10 12 12 12 13 5 1 7 8 10 9 9 10 11 11 10 10 10 10 11 11 12 12 14 14
9 8 9 10 9 8 9 8 8 8 8 9 9 8 9 8 8 8 8 5 6 6 7 6 5 5 5 5 6 6 6 6 6 6 6 6 5 5 6 7 8 7 8 8 7 6 5 7 7 8 10 11 11 12 16 7 9 11 7 8 11 10 10 11 12 12 9 10 9 10 11 12 13 14
9 8 8 9 9 8 8 8 8 8 9 8 8 7 7 7 6 6 4 5 6 6 6 6 5 4 5 5 5 5 5 6 6 6 7 6 6 6 6 7 8 7 8 9 7 6 4 5 7 7 8 10 11 12 15 16 11 5 7 12 10 11 10 11 10 11 13 8 7 9 10 12 13 13
7 8 9 8 8 9 9 9 9 10 9 8 8 8 8 7 6 5 6 6 6 6 5 5 5 6 6 5 6 5 6 5 6 6 6 6 6 6 6 6 7 7 7 9 8 7 5 5 6 6 7 8 8 12 12 13 15 15 14 19 13 11 10 9 11 11 10 11 10 10 9 9 13 20
7 6 6 5 4 5 6 5 6 7 7 7 8 7 7 7 7 6 6 6 6 6 6 6 6 5 5 6 6 5 6 5 7 6 6 6 6 6 6 5 6 7 8 9 9 8 6 6 6 7 9 10 11 12 12 14 13 12 11 13 20 15 11 10 11 11 12 9 10 10 13 11 10 8
6 6 6 5 4 3 4 4 5 5 6 6 6 6 7 6 6 7 7 7 6 6 6 6 6 5 6 5 5 5 5 6 6 6 6 6 7 8 8 9 7 6 7 9 8 9 8 7 10 19 16 11 12 12 10 8 10 10 10 9 12 18 21 18 12 10 11 11 10 10 10 11 10 9
6 6 6 6 5 5 4 5 4 5 6 6 6 7 6 6 6 7 6 6 6 6 6 5 6 5 5 5 5 5 5 6 6 6 7 6 6 7 9 6 6 6 6 8 8 9 8 8 10 10 9 9 8 8 10 10 10 11 10 10 8 12 17 21 22 19 13 10 10 10 10 9 8 8
6 6 7 6 6 5 5 5 4 4 5 4 4 4 4 4 4 5 4 5 6 5 6 6 5 5 5 5 6 5 5 6 6 6 6 6 6 7 7 6 5 6 7 8 8 8 8 8 8 9 8 7 7 7 10 10 10 10 12 10 11 10 9 14 18 22 21 20 16 11 8 8 7 7
5 6 6 6 6 6 6 5 5 5 4 4 4 3 4 4 5 6 5 6 6 6 6 6 5 5 5 5 5 4 6 6 5 6 7 6 6 5 6 7 7 7 6 7 8 8 7 7 7 7 8 8 8 8 9 10 10 10 10 11 10 11 13 10 10 14 16 15 15 16 19 18 15 14
6 6 6 6 6 7 7 6 6 5 5 4 4 4 4 5 5 5 5 5 6 6 5 5 5 5 5 5 5 5 5 5 6 6 5 5 5 7 6 7 7 7 7 6 7 8 7 8 8 6 6 7 7 7 9 10 11 11 11 11 13 11 10 10 11 12 12 12 15 22 22 22 20 20
Wind_Direction
111 91 98 111 110 110 106 91 96 104 91 99 127 149 152 151 123 310 315 283 187 299 109 193 283 45 15 1 349 341 339 337 339 338 334 328 326 324 330 332 331 330 330 330 330 327 326 325 325 323 323 323 321 320 319 318 317 316 314 313 314 313 313 311 310 310 310 309 307 305 304 304 303 301
105 102 83 102 100 119 97 108 103 93 109 106 106 110 124 139 146 198 263 285 225 240 321 106 291 351 355 346 336 337 328 332 337 332 326 325 319 325 330 328 328 328 328 328 326 325 325 325 324 322 322 321 321 320 318 318 317 315 316 316 315 314 314 315 315 312 310 308 306 305 305 305 304 303
108 111 101 99 108 118 111 110 101 105 106 107 111 107 98 75 132 167 176 290 280 147 232 259 352 312 346 336 323 328 324 330 333 326 320 319 321 326 322 324 325 326 326 324 324 324 324 323 323 322 321 320 319 318 317 316 316 316 316 314 313 312 312 312 310 309 308 307 306 306 305 304 303 302
119 121 116 114 122 131 113 114 122 115 108 115 93 101 97 93 114 129 166 224 269 261 293 297 297 328 336 333 325 326 326 323 327 317 316 313 319 318 313 316 320 321 322 321 322 322 322 322 321 320 319 318 317 316 314 314 315 316 314 313 313 313 312 310 309 308 308 306 306 305 303 301 299 299
129 131 126 134 144 149 126 145 138 113 114 101 96 110 100 92 109 124 184 243 283 296 178 324 322 336 339 326 338 325 326 323 320 318 309 310 311 310 308 307 309 313 316 318 319 318 319 319 318 318 317 316 315 314 313 313 314 313 313 314 313 312 311 310 309 309 309 308 305 303 301 299 297 296
149 137 129 152 158 168 144 148 127 132 114 112 102 106 121 144 168 273 149 262 252 291 304 316 313 322 349 317 346 336 327 321 316 313 315 309 303 305 302 301 299 303 310 315 315 317 317 317 316 314 314 313 313 311 311 312 312 312 313 313 313 312 310 310 309 309 308 306 304 303 302 299 297 295
152 136 153 178 166 166 125 136 137 132 123 133 132 146 143 137 210 234 207 174 276 282 299 331 328 335 331 326 320 323 307 299 302 308 312 312 306 295 295 294 291 297 303 311 315 315 315 314 313 312 312 311 310 310 310 309 309 311 312 312 312 311 311 309 309 308 307 307 305 304 304 303 299 297
171 171 172 189 165 150 127 151 128 136 136 144 151 153 173 150 193 204 189 258 240 290 297 305 339 320 323 315 307 302 296 293 304 304 301 298 296 294 289 287 293 294 300 308 310 312 312 311 311 310 309 309 309 309 308 308 309 310 311 311 312 311 310 309 308 306 306 305 306 306 305 303 301 299
177 185 187 192 163 146 132 163 166 178 160 178 160 168 191 181 195 195 204 217 234 261 273 290 297 302 298 294 300 301 309 312 303 298 299 306 303 297 290 290 291 291 299 299 302 303 305 308 309 309 309 308 309 308 308 308 309 309 310 311 310 308 307 307 305 305 305 306 306 306 305 303 303 302
191 186 191 186 171 161 160 198 199 184 192 180 182 181 200 195 192 203 220 215 227 243 261 274 300 307 306 308 286 280 301 311 316 315 306 294 292 304 311 307 299 298 295 302 295 297 299 297 305 308 308 309 307 307 307 307 308 310 310 309 307 306 305 303 304 306 307 306 305 304 303 303 302 301
193 187 180 181 175 178 184 188 196 194 197 186 202 200 199 202 193 214 212 219 229 245 272 275 271 292 288 285 305 310 295 288 289 303 314 318 324 312 314 315 310 302 297 295 300 304 309 308 308 307 308 307 306 304 303 306 308 309 308 306 305 303 302 304 305 306 306 306 305 305 304 303 303 301
191 189 189 184 192 187 200 193 207 189 197 196 207 215 191 200 200 210 220 225 234 243 258 272 290 283 295 296 276 281 299 305 306 310 315 311 320 322 317 312 315 313 305 306 306 302 305 303 303 304 304 304 302 302 304 306 306 306 305 304 301 301 305 306 304 305 307 308 306 305 304 304 304 303
194 200 196 200 205 208 214 216 211 204 199 186 208 221 188 205 202 215 223 225 232 248 258 277 279 287 289 291 303 310 314 319 317 319 320 311 313 315 312 315 314 306 312 309 311 318 319 309 305 306 296 294 301 303 305 304 302 298 299 300 303 306 307 305 305 306 307 307 307 307 306 305 304 302
212 207 210 219 220 227 231 236 238 237 231 217 195 192 193 199 201 212 218 229 227 233 252 263 283 292 290 305 298 294 305 313 316 318 320 315 317 317 314 308 310 322 315 325 317 314 316 303 297 291 294 300 306 304 301 293 296 299 303 306 308 308 307 307 307 306 306 307 307 307 307 306 306 306
214 223 220 220 235 236 241 243 239 236 238 245 248 232 208 195 187 203 220 221 205 214 239 265 270 273 285 297 306 309 315 317 318 316 313 313 317 322 323 318 316 340 336 319 314 308 310 296 300 306 302 302 298 295 289 296 305 309 311 309 308 307 307 306 306 306 306 307 311 313 311 309 307 306
208 217 222 228 215 222 223 221 238 246 248 248 245 243 244 246 242 226 198 205 223 235 258 269 262 286 294 303 311 314 318 315 313 311 314 317 320 317 313 310 306 317 334 318 312 302 309 305 294 295 300 295 291 289 301 312 314 311 308 307 307 306 305 306 306 306 308 315 317 315 312 309 307 306
210 210 215 222 224 220 228 227 214 207 232 248 250 251 252 251 247 248 257 260 257 257 260 268 278 282 295 302 308 313 309 308 306 316 317 318 315 310 304 303 306 309 325 308 301 303 313 314 313 312 310 308 317 322 321 313 310 310 310 309 308 309 310 310 309 313 315 315 314 312 310 308 307 305
211 210 209 213 226 223 219 223 218 216 219 223 243 260 270 267 265 260 261 262 267 270 269 272 275 286 294 297 303 300 302 313 322 324 315 315 309 307 301 304 299 298 304 296 310 307 313 317 311 311 319 328 320 311 305 310 315 314 312 313 315 314 314 316 317 315 313 312 311 310 308 307 306 305
214 214 214 216 223 220 221 219 216 217 224 221 230 239 246 249 247 244 245 248 251 248 257 268 277 286 293 286 283 296 321 325 322 313 305 312 311 301 298 291 279 286 300 317 325 303 309 314 314 312 317 318 311 311 316 315 313 314 316 316 317 318 316 314 313 312 311 310 309 308 308 310 310 309
218 214 214 217 224 223 226 227 231 229 209 211 223 233 240 242 244 241 235 240 242 239 235 244 272 283 279 284 301 317 320 324 312 311 320 315 293 299 303 301 314 305 323 339 316 305 309 321 310 310 315 313 312 313 305 307 311 312 313 315 315 313 311 310 310 311 309 309 310 310 311 311 310 310
217 217 214 216 219 225 230 229 235 238 234 206 214 224 233 238 241 242 234 246 255 259 276 288 289 287 291 304 312 313 315 310 315 348 326 301 311 313 310 306 313 305 322 315 310 324 306 313 314 310 313 315 310 304 300 298 306 311 310 309 308 308 310 311 309 308 310 311 311 310 310 310 311 312
222 220 217 211 215 222 230 230 235 234 232 231 225 226 239 246 245 241 227 181 220 257 281 283 279 291 304 311 316 315 308 307 314 327 287 287 310 294 293 298 308 305 308 294 336 314 302 314 317 311 307 300 288 299 305 308 308 310 311 311 310 311 310 309 310 310 311 311 310 310 310 311 313 314
219 229 226 227 225 224 228 231 233 232 229 226 226 231 240 246 244 238 207 208 230 245 219 203 65 315 325 328 298 286 297 301 305 287 272 283 288 288 288 289 304 307 294 201 345 314 312 319 316 322 316 309 292 282 301 304 307 316 313 311 311 310 312 313 313 312 310 310 310 309 311 312 314 311
231 223 226 230 232 233 230 230 231 232 230 226 227 230 237 239 245 219 192 218 237 193 179 203 210 264 279 276 276 265 265 273 266 274 278 274 275 274 280 280 276 270 287 312 325 312 303 306 304 315 305 311 315 320 311 310 311 307 308 308 303 312 314 313 311 310 309 308 309 310 311 313 313 308
225 224 221 215 226 230 231 232 231 231 232 232 231 231 234 237 239 227 233 234 198 135 178 191 215 270 270 262 255 257 257 252 249 250 274 270 264 270 273 283 277 269 275 286 311 314 305 308 298 301 296 285 286 304 310 306 303 303 299 303 306 306 308 313 314 311 309 307 308 310 311 309 308 308
228 225 215 215 218 227 233 236 236 235 236 237 238 241 248 253 255 257 112 138 118 124 179 270 291 275 269 263 266 262 255 252 251 249 254 262 262 258 256 262 278 284 287 294 308 304 300 299 301 305 300 301 298 303 307 305 293 297 301 294 296 307 314 315 315 313 313 312 309 307 306 309 310 308
229 218 222 220 220 228 233 236 236 238 239 240 240 245 249 252 251 252 116 133 146 194 248 295 283 272 257 254 264 270 270 267 262 270 275 270 266 265 260 260 258 266 280 292 291 287 282 283 292 296 301 301 302 306 302 308 310 312 303 306 307 307 307 306 307 308 306 302 297 302 305 302 301 301
216 216 217 209 221 229 234 237 238 238 238 234 238 241 243 236 241 118 164 137 204 278 286 274 268 267 255 236 257 257 260 271 275 282 287 284 277 273 276 273 268 266 274 278 277 273 273 277 285 286 289 298 298 300 303 299 298 306 307 309 304 301 300 303 300 297 294 294 294 294 296 299 298 299
212 216 220 220 225 230 235 238 239 240 238 238 238 240 229 227 102 137 148 209 220 260 258 254 254 258 255 237 245 255 271 280 285 288 285 282 276 269 264 267 269 272 271 272 270 268 269 274 283 289 290 289 291 291 294 297 302 302 305 309 306 303 305 303 294 296 300 299 294 295 292 296 296 297
217 221 223 225 230 233 235 236 233 238 243 245 248 240 222 146 154 144 170 200 219 245 248 246 247 251 258 255 253 260 274 282 282 282 285 298 298 300 299 302 293 276 255 259 258 260 265 274 282 291 292 288 286 289 291 296 295 291 293 291 290 296 286 291 301 302 304 312 317 313 309 299 293 292
218 217 217 220 226 227 231 232 232 235 234 238 236 210 201 141 162 170 189 207 223 230 234 243 247 251 252 269 288 285 287 283 276 257 271 280 282 296 296 296 296 306 297 277 264 256 264 276 285 293 293 293 287 281 286 283 286 293 295 292 298 300 306 307 305 311 315 313 311 305 300 297 291 284
227 217 221 224 225 226 232 233 230 232 209 201 199 199 196 193 180 196 204 212 200 223 214 234 249 274 273 276 267 276 279 273 280 274 269 271 285 285 299 303 297 302 305 306 298 280 270 275 285 287 283 288 291 292 287 282 281 286 286 289 291 289 296 306 309 307 308 306 297 291 286 288 291 296
238 233 222 216 224 221 219 222 219 203 190 213 210 211 202 204 195 193 189 215 227 225 215 237 241 254 259 270 277 283 285 276 278 274 272 266 264 288 278 281 291 300 307 309 312 312 310 296 285 294 288 281 273 276 284 292 285 280 284 295 303 302 303 302 302 306 311 309 302 300 299 297 294 291
225 225 225 226 222 225 225 225 224 209 201 210 212 224 220 208 203 207 214 221 233 221 218 228 232 245 242 260 266 274 270 282 277 274 281 285 283 289 294 294 294 294 294 296 303 306 309 312 314 306 292 278 260 258 260 262 276 281 290 299 301 299 303 304 302 303 304 301 301 304 303 303 300 296
228 224 225 229 225 226 225 230 230 222 214 214 214 218 208 212 214 218 210 223 221 218 222 225 221 228 226 242 252 263 271 275 286 290 277 270 278 270 281 288 293 298 302 303 305 306 308 318 324 318 315 313 309 256 244 244 231 287 299 297 293 299 304 306 304 304 303 301 299 287 283 290 298 304
229 228 231 233 229 222 224 231 226 223 223 224 225 227 221 226 208 209 222 217 201 213 214 223 227 226 229 232 242 249 261 270 276 281 289 285 283 285 276 275 283 290 294 294 297 302 317 321 327 322 324 327 330 323 310 282 313 304 304 299 303 308 305 304 303 301 302 303 305 307 308 309 305 308
228 224 230 236 234 221 226 227 219 219 216 218 220 215 217 222 209 208 216 201 194 204 213 206 223 226 234 234 238 244 256 264 271 276 278 280 277 277 287 287 289 292 297 292 290 300 323 319 320 321 321 321 322 315 302 306 310 309 289 306 308 304 308 312 309 304 301 300 298 316 313 308 302 302
233 227 227 233 234 231 225 222 216 219 218 215 218 216 220 223 218 214 158 168 208 204 215 216 222 223 229 225 232 250 252 254 257 268 271 278 281 280 277 288 292 296 292 293 299 306 316 307 312 314 319 315 313 312 311 314 315 292 308 311 301 307 309 304 306 309 307 304 304 306 306 302 299 299
244 241 237 234 229 225 224 220 212 219 215 208 209 213 215 216 212 207 192 207 203 209 208 215 221 223 228 232 226 231 243 259 268 266 272 268 264 271 281 285 290 290 292 295 303 306 311 303 305 307 308 302 299 301 300 299 298 304 308 309 311 306 306 311 307 302 301 312 313 306 285 277 284 290
269 269 264 261 245 223 227 225 222 222 218 212 210 211 207 208 204 205 209 210 206 209 205 213 218 218 221 224 229 231 240 243 253 259 263 270 270 269 269 274 277 289 296 298 304 304 307 303 305 309 307 302 291 284 282 278 277 280 290 304 311 311 312 316 312 311 308 310 312 306 308 311 308 310
319 304 306 312 297 284 248 235 224 219 222 216 212 212 209 204 203 209 207 208 194 199 206 214 213 217 224 219 221 212 240 255 252 256 259 264 270 274 281 289 287 287 291 293 295 298 299 298 303 310 307 291 285 281 278 282 296 301 300 296 305 316 319 319 311 309 306 308 305 302 300 305 310 319
335 326 322 329 317 300 280 259 242 227 225 214 210 209 209 205 213 215 212 211 198 202 209 216 215 211 218 212 220 221 228 243 255 262 261 263 272 279 281 276 276 285 287 288 292 292 292 300 305 305 293 293 293 304 309 307 302 306 304 306 299 311 316 317 317 313 306 300 302 302 305 307 315 310
327 323 318 319 326 316 310 305 290 276 266 254 245 232 216 215 208 219 208 206 210 207 211 218 213 205 219 219 218 216 224 247 247 257 261 264 262 270 274 273 272 278 281 283 286 286 296 304 306 304 299 293 297 303 299 302 300 300 306 310 311 315 311 316 316 316 315 311 305 300 306 309 304 303
319 313 314 318 319 317 310 300 292 279 271 261 243 224 218 212 218 217 214 219 209 217 212 217 217 216 224 222 215 219 224 237 248 254 258 255 263 274 284 287 286 282 279 283 288 294 298 300 298 298 304 306 309 306 302 305 303 307 305 307 309 315 318 322 318 319 319 317 317 323 328 328 322 317
330 327 325 327 319 313 307 294 284 276 265 256 244 229 231 226 231 225 222 219 221 221 214 214 216 221 220 219 211 234 238 238 246 247 255 274 281 275 272 277 283 284 284 285 295 298 302 300 298 292 288 293 298 298 300 306 307 309 309 313 313 314 315 323 328 328 325 319 321 331 338 339 340 340